FW2297 Weather Reports


time (UTC)temp
C
wind
direction
speed
KPH
gust
KPH
rain 1hr
cm
rain 24hr
cm
rain mn
cm
humidity
%
barometer
mb
20260504195048 20 0 4.8 22.5 0.00 0.03 0.00 36 1004.8
20260504194605 19 0 4.8 22.5 0.00 0.03 0.00 35 1004.9
20260504194048 19 248 3.2 17.7 0.00 0.03 0.00 36 1004.9
20260504193549 19 329 0.0 22.5 0.00 0.03 0.00 36 1004.9
20260504193058 19 0 0.0 27.4 0.00 0.03 0.00 37 1004.9
20260504192550 19 0 4.8 29.0 0.00 0.03 0.00 37 1004.8
20260504192048 19 320 11.3 29.0 0.00 0.03 0.00 37 1004.9
20260504191555 18 0 1.6 30.6 0.00 0.03 0.00 39 1004.9
20260504191051 18 0 9.7 30.6 0.00 0.03 0.00 37 1004.7
20260504190551 19 0 6.4 27.4 0.00 0.03 0.00 37 1004.8
20260504190128 20 271 6.4 27.4 0.00 0.03 0.00 35 1004.9
20260504185548 20 0 1.6 38.6 0.00 0.03 0.00 36 1005.0
20260504185051 20 233 11.3 38.6 0.00 0.03 0.00 36 1005.0
20260504184555 19 201 8.0 30.6 0.00 0.03 0.00 39 1005.0
20260504184052 18 298 8.0 27.4 0.00 0.03 0.00 39 1005.1
20260504183551 18 0 6.4 27.4 0.00 0.03 0.00 40 1005.1
20260504183054 18 207 11.3 25.7 0.00 0.03 0.00 38 1005.0
20260504182551 19 266 4.8 29.0 0.00 0.03 0.00 38 1005.1
20260504182048 18 255 8.0 30.6 0.00 0.03 0.00 39 1005.2
20260504181559 18 288 6.4 30.6 0.00 0.03 0.00 40 1005.3
20260504181048 18 276 6.4 24.1 0.00 0.03 0.00 39 1005.2
20260504180551 18 301 3.2 19.3 0.00 0.03 0.00 41 1005.4
20260504180059 17 257 0.0 20.9 0.00 0.03 0.00 42 1005.5
20260504175550 16 272 1.6 20.9 0.00 0.03 0.00 45 1005.7
20260504175048 15 0 1.6 20.9 0.00 0.03 0.00 45 1005.8
20260504174559 15 0 0.0 20.9 0.00 0.03 0.00 46 1005.6
20260504174048 15 0 0.0 20.9 0.00 0.03 0.00 46 1005.8
20260504173547 15 0 6.4 27.4 0.00 0.03 0.00 44 1005.7
20260504173057 15 250 8.0 27.4 0.00 0.03 0.00 44 1005.8
20260504172553 15 0 4.8 27.4 0.00 0.03 0.00 46 1005.7
20260504172052 16 293 3.2 32.2 0.00 0.03 0.00 44 1005.6
20260504171558 16 302 3.2 32.2 0.00 0.03 0.00 44 1005.6
20260504171053 16 278 14.5 37.0 0.00 0.03 0.00 43 1005.5
20260504170552 16 321 8.0 37.0 0.00 0.03 0.00 43 1005.5
20260504151053 16 0 11.3 25.7 0.00 0.03 0.00 41 1006.1
20260504150551 16 288 4.8 25.7 0.00 0.03 0.00 43 1006.0
20260504141051 15 262 4.8 20.9 0.00 0.03 0.00 43 1006.1
20260504140551 15 0 6.4 20.9 0.00 0.03 0.00 44 1006.2
20260504130552 12 0 0.0 3.2 0.00 0.03 0.00 58 1007.1
20260504110553 3 0 0.0 0.0 0.00 0.03 0.00 84 1008.0
20260504100552 3 0 0.0 0.0 0.00 0.03 0.00 82 1007.8
20260504081600 3 0 0.0 0.0 0.00 0.03 0.00 75 1008.0
20260504081051 3 0 0.0 0.0 0.00 0.03 0.00 73 1007.9
20260504080551 3 0 0.0 0.0 0.00 0.03 0.00 75 1008.1
20260504060123 1 0 0.0 0.0 0.00 0.03 0.00 81 1007.8
20260504050551 0 0 0.0 0.0 0.00 0.03 0.00 80 1007.9
20260504050112 0 0 0.0 0.0 0.00 0.03 0.00 80 1007.9
20260504045551 0 0 0.0 0.0 0.00 0.03 0.00 80 1008.0
20260504045050 0 0 0.0 0.0 0.00 0.03 0.00 79 1007.9
20260504044552 0 0 0.0 0.0 0.00 0.03 0.00 79 1007.9
20260504044054 0 0 0.0 0.0 0.00 0.03 0.00 79 1007.9
20260504043551 0 0 0.0 0.0 0.00 0.03 0.00 78 1008.0
20260504043106 0 0 0.0 0.0 0.00 0.03 0.00 78 1008.0
20260504042550 0 0 0.0 0.0 0.00 0.03 0.00 78 1008.0
20260504042051 0 0 0.0 0.0 0.00 0.03 0.00 78 1008.0
20260504041554 0 0 0.0 0.0 0.00 0.03 0.00 78 1008.0
20260504041051 1 0 0.0 0.0 0.00 0.03 0.00 78 1007.9
20260504040551 1 0 0.0 6.4 0.00 0.03 0.00 77 1007.9
20260504040059 1 0 0.0 6.4 0.00 0.03 0.00 77 1007.9
20260504035551 1 0 0.0 6.4 0.00 0.03 0.03 77 1007.7
20260504035052 1 0 0.0 0.0 0.00 0.03 0.03 76 1007.8
20260504034554 1 0 0.0 0.0 0.00 0.03 0.03 75 1007.7
20260504034051 1 0 0.0 0.0 0.00 0.03 0.03 75 1007.7
20260504033551 1 0 0.0 0.0 0.00 0.03 0.03 74 1007.8
20260504033056 1 0 0.0 0.0 0.00 0.03 0.03 72 1007.8
20260504032551 2 0 0.0 0.0 0.00 0.03 0.03 72 1007.7
20260504032054 2 0 0.0 0.0 0.00 0.03 0.03 71 1007.7
20260504031558 2 0 0.0 0.0 0.00 0.03 0.03 70 1007.8
20260504031050 2 0 0.0 0.0 0.00 0.03 0.03 70 1007.7
20260504030551 2 0 0.0 0.0 0.00 0.03 0.03 68 1007.7
20260504030053 2 0 0.0 0.0 0.00 0.03 0.03 68 1007.7
20260504025551 2 0 0.0 0.0 0.00 0.13 0.03 68 1007.7
20260504025051 3 0 0.0 0.0 0.00 0.13 0.03 67 1007.7
20260504024550 3 0 0.0 0.0 0.00 0.13 0.03 66 1007.8
20260504024053 3 0 0.0 0.0 0.00 0.13 0.03 65 1007.8
20260504023551 3 0 0.0 0.0 0.00 0.13 0.03 64 1007.8
20260504023053 4 0 0.0 0.0 0.00 0.13 0.03 62 1007.9
20260504022551 4 0 0.0 0.0 0.00 0.13 0.03 61 1007.9
20260504022050 4 0 0.0 0.0 0.00 0.13 0.03 61 1008.0
20260504021554 4 0 0.0 0.0 0.00 0.13 0.03 60 1007.9
20260504021050 4 0 0.0 0.0 0.00 0.13 0.03 60 1007.8
20260504020550 4 0 0.0 0.0 0.00 0.13 0.03 60 1007.8
20260504020052 5 0 0.0 0.0 0.00 0.13 0.03 60 1007.9
20260504015551 5 0 0.0 0.0 0.00 0.25 0.03 60 1007.8
20260504015051 5 0 0.0 0.0 0.00 0.25 0.03 59 1007.9
20260504014558 5 0 0.0 0.0 0.00 0.25 0.03 59 1007.7
20260504014050 5 0 0.0 0.0 0.00 0.25 0.03 59 1007.8
20260504013551 5 0 0.0 0.0 0.00 0.25 0.03 60 1007.7
20260504013100 5 0 0.0 0.0 0.00 0.25 0.03 60 1007.8
20260504012552 5 0 0.0 0.0 0.00 0.25 0.03 60 1007.7
20260504012053 5 0 0.0 0.0 0.00 0.25 0.03 60 1007.7
20260504011551 5 0 0.0 0.0 0.00 0.25 0.03 59 1007.7
20260504011051 5 0 0.0 0.0 0.00 0.25 0.03 59 1007.7
20260504010551 5 0 0.0 0.0 0.00 0.25 0.03 59 1007.6
20260504010112 5 0 0.0 0.0 0.00 0.25 0.03 58 1007.6
20260504005551 5 0 0.0 0.0 0.00 0.25 0.03 58 1007.5
20260504005051 5 0 0.0 0.0 0.00 0.25 0.03 57 1007.4
20260504004553 5 0 0.0 0.0 0.00 0.25 0.03 57 1007.2
20260504004053 6 0 0.0 0.0 0.00 0.25 0.03 57 1007.2
20260504003550 6 0 0.0 0.0 0.00 0.25 0.03 56 1007.2
20260504003051 6 0 0.0 0.0 0.00 0.25 0.03 56 1007.2
20260504002550 6 0 0.0 0.0 0.00 0.25 0.03 56 1007.1
20260504002050 6 0 0.0 0.0 0.00 0.25 0.03 55 1007.0
20260504001600 6 0 0.0 0.0 0.00 0.25 0.03 55 1006.9
20260504001050 6 0 0.0 0.0 0.00 0.25 0.03 54 1006.9
20260504000550 7 0 0.0 0.0 0.00 0.25 0.03 53 1006.8
20260504000059 7 0 0.0 3.2 0.00 0.25 0.03 52 1006.8
20260503235554 7 0 0.0 6.4 0.00 0.28 0.03 51 1006.7
20260503235051 7 0 0.0 6.4 0.00 0.28 0.03 50 1006.7
20260503234554 7 0 0.0 8.0 0.00 0.28 0.03 50 1006.6
20260503234053 7 0 0.0 8.0 0.00 0.28 0.03 50 1006.5
20260503233551 7 0 0.0 12.9 0.00 0.28 0.03 49 1006.5
20260503233101 7 0 0.0 12.9 0.00 0.28 0.03 48 1006.5
20260503232550 7 0 0.0 11.3 0.00 0.28 0.03 48 1006.3
20260503232050 8 275 0.0 12.9 0.00 0.28 0.03 48 1006.3
20260503231559 8 0 0.0 12.9 0.00 0.28 0.03 47 1006.4
20260503231051 8 0 0.0 20.9 0.00 0.28 0.03 47 1006.4
20260503230552 8 0 1.6 20.9 0.00 0.28 0.03 46 1006.4
20260503230056 8 0 1.6 17.7 0.00 0.28 0.03 45 1006.4
20260503225554 8 331 1.6 20.9 0.00 0.28 0.03 45 1006.4
20260503225051 8 0 0.0 20.9 0.00 0.28 0.03 46 1006.4
20260503224557 8 315 6.4 20.9 0.00 0.28 0.03 44 1006.3
20260503224051 9 304 3.2 29.0 0.00 0.28 0.03 44 1006.1
20260503223551 9 339 1.6 29.0 0.00 0.28 0.03 44 1006.2
20260503223051 9 0 3.2 25.7 0.00 0.28 0.03 43 1006.0
20260503222550 10 5 6.4 25.7 0.00 0.28 0.03 42 1006.1
20260503222053 10 276 1.6 19.3 0.00 0.28 0.03 45 1006.2
20260503221601 10 0 0.0 14.5 0.00 0.28 0.03 45 1006.1
20260503221051 9 0 0.0 14.5 0.00 0.28 0.03 45 1006.0
20260503220552 9 242 1.6 12.9 0.00 0.28 0.03 46 1006.0
20260503220105 8 0 0.0 17.7 0.00 0.28 0.03 46 1006.0
20260503215548 8 0 0.0 17.7 0.00 0.28 0.03 46 1006.1
20260503215048 8 0 1.6 22.5 0.00 0.28 0.03 46 1006.0
20260503214554 8 0 3.2 22.5 0.00 0.28 0.03 46 1005.9
20260503214054 8 277 1.6 22.5 0.00 0.28 0.03 45 1006.0
20260503213554 8 0 1.6 19.3 0.00 0.28 0.03 46 1006.0
20260503213054 8 0 3.2 22.5 0.00 0.28 0.03 45 1006.1
20260503212551 8 1 1.6 22.5 0.00 0.28 0.03 45 1006.0
20260503212048 8 256 4.8 19.3 0.00 0.28 0.03 46 1006.0
20260503211557 8 347 1.6 16.1 0.00 0.28 0.03 46 1006.0
20260503211048 8 0 0.0 25.7 0.00 0.28 0.03 46 1006.0
20260503210552 9 278 1.6 25.7 0.00 0.28 0.03 45 1005.9
20260503210057 9 271 6.4 24.1 0.00 0.28 0.03 45 1005.8
20260503205552 8 299 0.0 27.4 0.00 0.48 0.03 47 1006.0
20260503205052 8 294 4.8 27.4 0.00 0.48 0.03 46 1005.9
20260503204603 8 258 3.2 24.1 0.00 0.48 0.03 47 1005.7
20260503204051 8 0 4.8 20.9 0.00 0.48 0.03 48 1005.8
20260503203548 8 0 4.8 22.5 0.00 0.48 0.03 46 1005.9
20260503203100 8 0 3.2 22.5 0.00 0.48 0.03 46 1005.8
20260503202552 8 0 3.2 25.7 0.00 0.48 0.03 48 1005.9
20260503202050 8 0 6.4 25.7 0.00 0.48 0.03 47 1005.8
20260503201551 8 301 1.6 24.1 0.00 0.48 0.03 47 1005.6
20260503201048 8 314 1.6 24.1 0.00 0.48 0.03 46 1005.7
20260503200548 8 275 6.4 20.9 0.00 0.48 0.03 45 1005.5
20260503200054 8 1 1.6 30.6 0.03 0.48 0.03 44 1005.5
20260503195549 8 0 3.2 30.6 0.03 0.48 0.03 44 1005.4